Temp
80 68 64 72 79 81 79 73 73 78 86 80 73 70 74 76 77 76 75 72 69 68 73 80 89 90 85 83 82 77 79 77 79 75 73 72 73 74 74 76 80 79 82 80
73 68 79 85 86 79 76 73 72 79 86 78 69 67 72 76 75 76 77 77 71 68 70 80 82 88 85 81 82 79 80 78 79 79 77 74 74 75 75 77 77 80 81 80
70 78 89 85 81 77 70 69 72 75 80 80 69 63 65 73 73 78 78 78 72 75 76 80 82 86 87 84 81 80 79 79 80 79 74 73 74 73 73 74 75 77 81 82
76 86 86 78 78 77 62 82 83 80 71 60 74 51 61 66 66 70 79 75 71 74 74 71 75 82 87 82 85 82 80 79 78 76 75 73 72 70 72 73 75 77 80 81
75 79 79 77 79 83 75 84 79 79 70 64 66 58 59 61 61 67 74 79 75 75 74 73 75 72 73 72 73 73 72 80 80 79 77 73 72 72 73 73 74 74 77 80
79 88 83 79 86 85 87 79 76 72 66 58 69 65 53 61 65 64 73 78 82 81 77 77 71 71 69 73 72 75 72 75 78 78 75 74 72 73 72 72 71 72 74 76
77 80 85 86 74 81 77 64 54 53 56 57 64 57 56 69 76 71 69 70 84 82 76 70 70 70 69 70 74 73 71 69 78 78 77 75 74 73 72 72 71 70 72 74
65 63 79 85 77 72 71 65 55 48 52 55 64 54 58 68 72 70 72 74 80 81 74 70 71 70 72 72 72 72 70 69 74 78 77 75 75 76 74 72 72 70 73 77
64 68 85 87 86 81 72 63 72 61 60 58 54 58 66 68 69 70 67 74 73 78 72 72 72 69 70 71 71 72 70 71 77 78 78 77 74 74 74 75 74 75 75 75
69 65 80 84 84 84 69 76 62 59 49 49 57 57 56 62 61 66 66 69 69 81 73 72 70 72 73 71 72 72 73 72 77 77 77 78 78 75 75 75 74 75 76 77
70 66 71 80 70 69 73 66 67 67 60 54 49 50 64 59 62 63 64 67 76 80 80 72 73 75 74 72 70 73 75 78 79 77 78 75 76 77 76 76 76 75 76 75
71 68 60 69 82 84 74 74 71 56 57 60 59 54 68 65 67 67 66 77 80 82 81 82 79 74 73 73 75 73 74 81 82 81 77 77 77 75 76 75 76 77 75 75
73 63 56 61 71 77 72 74 68 68 64 57 57 57 69 64 67 71 73 75 77 81 80 80 80 79 80 79 76 72 73 78 81 81 79 78 75 77 75 77 76 74 75 75
75 65 59 54 61 69 68 75 77 66 57 58 58 61 61 63 65 69 72 73 75 79 80 78 74 77 77 77 75 75 75 75 77 80 80 78 74 75 76 76 76 75 76 75
73 60 62 69 74 76 74 74 76 69 68 59 64 64 63 63 64 67 71 72 78 78 78 78 77 72 74 75 75 76 76 77 79 78 77 77 76 76 76 76 76 75 75 76
73 61 64 63 74 75 72 75 76 76 75 70 67 63 69 69 69 68 72 77 76 76 78 78 79 75 74 77 77 78 77 77 78 77 77 78 77 78 77 76 76 75 76 76
67 63 59 53 68 68 61 70 74 74 75 72 63 63 70 64 66 67 71 73 74 76 76 76 76 76 76 73 79 77 77 77 74 75 77 78 77 77 76 76 76 75 74 74
66 62 60 54 59 48 67 76 79 76 77 75 73 68 69 65 66 69 72 73 74 76 75 75 75 77 78 79 75 73 76 77 76 76 76 77 77 76 76 76 75 75 74 73
74 65 57 52 51 62 70 73 72 67 66 75 73 73 77 75 74 68 72 75 74 75 74 75 74 76 75 76 76 75 73 75 77 75 76 77 77 76 76 76 76 73 74 73
73 69 61 56 50 49 62 77 81 76 56 71 73 70 70 71 57 60 70 72 74 75 74 74 76 76 75 75 76 75 74 73 73 74 75 77 77 76 75 76 74 76 76 76
63 60 58 57 54 61 70 77 79 55 55 72 72 70 69 62 65 69 71 72 74 75 75 74 74 72 73 73 73 72 72 72 73 75 75 74 76 76 76 75 75 76 75 76
59 56 55 59 55 53 74 73 61 62 68 72 72 71 70 71 72 71 72 73 75 74 75 75 72 72 72 73 71 69 69 72 74 73 73 73 74 75 76 75 74 75 73 74
59 61 58 61 58 68 71 69 73 73 70 70 69 72 71 71 70 72 70 71 73 73 73 74 71 71 71 72 70 68 69 70 71 71 71 72 73 73 74 73 73 72 73 73
64 69 64 62 65 68 71 72 73 73 71 73 73 73 72 69 71 70 70 69 69 70 70 71 70 69 68 70 71 69 69 70 69 68 69 70 70 69 69 68 66 67 69 70
65 65 63 62 63 67 69 71 72 73 75 74 74 74 72 71 70 67 68 68 68 68 69 70 68 67 68 69 69 69 70 69 67 67 67 69 69 69 67 60 59 63 65 63
67 62 58 55 64 63 64 70 74 71 72 73 72 70 73 71 71 69 68 68 68 68 68 68 67 67 67 68 68 68 69 68 66 65 65 66 68 68 69 64 61 53 51 51
MSLP
1004.75 1005.40 1005.23 1004.40 1004.00 1003.52 1003.37 1003.37 1003.29 1002.47 1002.25 1002.97 1004.60 1005.89 1006.22 1006.22 1006.02 1005.81 1006.76 1007.21 1008.74 1008.69 1008.55 1007.69 1007.15 1007.78 1008.74 1009.42 1010.29 1011.12 1011.78 1012.11 1012.86 1013.67 1014.25 1014.72 1014.87 1014.91 1014.94 1014.85 1014.59 1014.65 1014.84 1015.25
1004.75 1004.65 1003.88 1003.40 1002.86 1002.91 1003.11 1003.35 1003.11 1002.52 1002.46 1003.49 1005.14 1006.22 1006.40 1005.94 1006.54 1006.20 1005.33 1006.20 1008.05 1008.98 1008.86 1008.11 1008.18 1007.82 1008.68 1009.20 1009.99 1010.85 1011.50 1012.01 1012.61 1013.32 1013.66 1014.24 1014.52 1014.66 1014.65 1014.50 1014.66 1014.58 1014.60 1014.83
1004.27 1003.34 1002.87 1002.70 1002.49 1002.61 1002.96 1003.08 1002.82 1002.86 1002.71 1003.19 1005.11 1006.77 1006.52 1005.60 1005.97 1006.09 1005.80 1006.08 1007.90 1007.21 1007.77 1007.69 1007.51 1007.40 1007.83 1008.72 1009.72 1010.39 1010.97 1011.65 1012.08 1012.87 1013.51 1014.21 1014.51 1014.71 1014.92 1014.89 1014.83 1014.78 1014.55 1014.64
1003.36 1002.29 1002.09 1002.06 1002.33 1002.50 1002.74 1002.44 1002.63 1002.89 1003.70 1004.27 1004.85 1007.81 1007.52 1007.73 1006.92 1006.08 1005.56 1006.92 1006.96 1007.25 1007.65 1009.83 1009.59 1008.72 1008.41 1008.71 1009.24 1009.77 1010.74 1011.32 1011.75 1012.32 1012.98 1013.68 1014.09 1014.51 1014.68 1014.71 1014.73 1014.67 1014.50 1014.47
1002.73 1002.22 1001.75 1001.78 1001.79 1001.97 1002.34 1002.17 1002.65 1003.30 1004.17 1004.93 1006.11 1007.31 1008.54 1008.60 1008.58 1007.61 1006.97 1006.01 1007.08 1006.87 1007.81 1006.82 1006.91 1009.74 1010.09 1009.42 1010.95 1010.89 1011.56 1011.15 1011.47 1011.69 1012.26 1013.17 1013.81 1014.21 1014.26 1014.44 1014.50 1014.52 1014.52 1014.42
1002.37 1001.63 1001.52 1001.19 1001.30 1001.55 1001.85 1002.39 1002.85 1003.45 1004.49 1006.61 1006.18 1006.92 1009.01 1008.34 1008.23 1008.44 1007.25 1006.37 1005.06 1005.11 1007.20 1008.23 1009.75 1010.38 1009.47 1010.61 1011.31 1010.85 1011.79 1011.55 1011.30 1011.32 1011.75 1012.56 1013.37 1013.71 1014.06 1014.28 1014.43 1014.32 1014.27 1014.42
1002.41 1001.71 1000.98 1000.82 1001.30 1001.41 1001.84 1002.78 1003.66 1004.52 1005.33 1006.21 1006.65 1008.21 1008.60 1008.01 1007.66 1008.30 1008.04 1006.82 1005.15 1005.07 1007.40 1008.20 1009.62 1009.92 1010.22 1011.60 1012.18 1012.04 1011.71 1011.41 1010.93 1010.75 1011.26 1011.87 1012.51 1013.01 1013.40 1013.93 1014.07 1014.43 1014.37 1014.35
1002.45 1001.56 1000.46 1000.43 1001.04 1001.51 1002.00 1002.63 1003.64 1004.61 1005.80 1006.69 1006.79 1007.98 1009.08 1008.76 1009.63 1008.00 1008.66 1006.91 1006.14 1005.71 1007.04 1008.41 1009.37 1009.26 1008.22 1009.09 1010.31 1011.10 1010.61 1011.44 1011.21 1010.98 1011.15 1011.44 1011.85 1012.59 1012.92 1013.47 1013.74 1014.07 1014.14 1014.18
1002.04 1001.29 1000.13 999.93 1000.33 1001.08 1001.60 1002.28 1002.64 1003.99 1004.59 1006.37 1008.28 1010.06 1009.72 1009.46 1010.95 1012.17 1011.36 1007.83 1008.14 1006.86 1007.47 1008.57 1008.96 1008.81 1007.75 1008.16 1009.06 1009.23 1010.32 1010.58 1011.58 1010.47 1010.75 1011.14 1011.60 1012.26 1012.67 1012.93 1013.17 1013.65 1013.85 1014.04
1001.53 1001.78 1000.62 1000.13 1000.17 1000.53 1001.37 1001.91 1002.72 1004.41 1006.09 1007.31 1008.94 1009.41 1010.00 1009.22 1011.45 1011.93 1011.66 1010.33 1009.15 1006.21 1007.50 1008.44 1008.88 1008.22 1008.26 1009.11 1009.41 1009.68 1011.14 1010.62 1009.62 1009.65 1010.14 1010.98 1011.44 1012.14 1012.23 1012.46 1012.72 1013.10 1013.41 1013.60
1001.58 1002.20 1001.84 1001.00 1001.16 1001.09 1001.57 1002.61 1003.47 1004.18 1005.53 1006.61 1008.19 1009.22 1008.91 1009.89 1010.34 1010.02 1011.30 1009.05 1007.22 1005.79 1006.07 1007.67 1008.27 1008.10 1007.89 1008.83 1009.49 1010.07 1010.39 1009.64 1009.50 1009.63 1009.70 1010.49 1011.23 1011.77 1011.93 1012.02 1012.33 1012.67 1013.03 1013.24
1002.56 1002.73 1002.98 1002.26 1001.33 1001.20 1002.11 1002.78 1003.51 1004.92 1005.42 1005.78 1006.55 1009.40 1008.89 1008.80 1008.55 1008.12 1008.23 1007.36 1006.15 1005.05 1005.42 1005.41 1006.40 1007.54 1007.93 1008.26 1008.78 1008.94 1008.88 1008.81 1009.10 1009.26 1009.69 1010.32 1010.93 1011.27 1011.44 1011.68 1011.99 1012.24 1012.53 1012.80
1003.28 1003.61 1004.22 1003.43 1002.71 1002.41 1002.35 1002.47 1002.78 1003.46 1003.96 1005.18 1006.52 1008.25 1008.41 1008.59 1008.49 1007.57 1006.81 1007.07 1005.89 1005.04 1005.31 1005.34 1005.42 1006.40 1007.28 1007.80 1007.77 1008.52 1008.35 1008.56 1008.97 1009.09 1009.47 1009.86 1010.47 1010.75 1011.04 1011.26 1011.70 1011.72 1012.22 1012.34
1003.42 1004.16 1004.93 1004.91 1004.29 1003.58 1003.24 1002.77 1002.49 1003.04 1003.90 1004.80 1005.68 1007.16 1008.75 1008.75 1007.92 1007.11 1007.00 1006.86 1006.19 1005.40 1005.67 1005.72 1005.87 1006.23 1006.91 1007.27 1007.38 1007.65 1008.11 1008.48 1008.74 1008.74 1008.88 1009.25 1009.66 1010.05 1010.52 1011.01 1011.19 1011.44 1011.62 1011.92
1003.75 1004.80 1005.04 1004.96 1004.38 1003.91 1003.48 1003.03 1002.75 1002.88 1003.17 1004.05 1004.72 1006.00 1007.31 1007.72 1007.17 1006.56 1006.69 1006.48 1006.10 1006.17 1006.27 1006.41 1006.62 1006.91 1007.18 1007.32 1007.47 1007.68 1007.93 1008.08 1008.17 1008.29 1008.55 1009.01 1009.27 1009.46 1010.02 1010.45 1010.69 1010.82 1011.13 1011.47
1004.10 1005.01 1005.45 1005.58 1005.00 1004.42 1003.68 1002.93 1002.52 1002.28 1002.48 1003.36 1004.30 1005.90 1006.33 1006.90 1008.16 1008.57 1007.62 1006.75 1006.34 1006.82 1007.05 1007.08 1007.11 1007.32 1007.36 1007.76 1007.57 1007.66 1007.67 1007.84 1008.06 1008.46 1008.48 1008.68 1008.78 1009.10 1009.46 1009.93 1010.20 1010.54 1010.80 1011.07
1004.75 1005.32 1006.21 1006.38 1005.86 1005.17 1004.26 1003.19 1002.50 1002.51 1002.76 1003.41 1004.74 1006.00 1006.96 1008.63 1008.97 1009.48 1008.15 1008.07 1007.65 1007.51 1007.71 1007.78 1007.68 1007.51 1007.12 1007.48 1007.69 1008.10 1007.67 1007.57 1007.68 1008.12 1008.21 1008.28 1008.50 1008.70 1009.03 1009.34 1009.74 1010.05 1010.21 1010.59
1004.63 1005.39 1006.07 1006.72 1006.35 1005.92 1004.25 1003.31 1002.77 1003.11 1003.74 1004.07 1005.08 1006.09 1006.95 1008.23 1009.65 1009.34 1008.50 1008.45 1008.22 1008.05 1008.20 1008.39 1008.17 1007.99 1007.53 1007.24 1007.41 1007.94 1007.46 1007.36 1007.72 1007.91 1007.99 1008.04 1008.17 1008.28 1008.61 1008.99 1009.22 1009.47 1009.86 1010.25
1004.06 1005.11 1006.28 1006.99 1007.00 1006.12 1004.46 1004.08 1003.81 1004.10 1005.44 1005.50 1005.87 1006.63 1007.23 1007.69 1008.19 1009.21 1009.21 1008.63 1008.39 1008.31 1008.47 1008.61 1008.81 1008.49 1008.13 1007.99 1007.90 1007.81 1008.01 1007.75 1007.63 1007.86 1007.92 1008.00 1007.79 1007.86 1007.84 1008.24 1008.64 1008.98 1009.32 1009.73
1004.08 1004.94 1006.48 1007.12 1007.38 1006.87 1005.96 1004.75 1004.43 1004.49 1006.40 1007.00 1007.04 1007.54 1007.71 1007.82 1008.87 1009.32 1009.19 1009.07 1008.98 1008.94 1008.99 1008.98 1008.89 1008.78 1008.60 1008.48 1008.28 1008.28 1008.32 1008.34 1008.46 1008.29 1008.05 1007.63 1007.34 1007.14 1007.38 1007.42 1007.74 1007.95 1008.32 1008.81
1004.95 1005.85 1006.61 1007.06 1007.09 1006.46 1006.28 1005.65 1005.31 1006.15 1008.04 1007.57 1007.84 1008.12 1008.36 1008.71 1009.04 1009.16 1009.23 1009.27 1009.15 1009.02 1008.97 1008.96 1009.04 1009.15 1009.02 1008.80 1008.78 1009.01 1008.86 1008.80 1008.58 1008.33 1007.90 1007.34 1007.03 1006.83 1006.83 1007.03 1006.83 1007.20 1007.77 1008.05
1005.41 1006.10 1006.65 1006.86 1006.98 1006.96 1006.51 1006.27 1007.00 1008.03 1007.97 1007.92 1008.10 1008.38 1008.56 1008.74 1008.90 1009.12 1009.08 1008.88 1008.72 1008.73 1008.64 1008.66 1008.88 1009.01 1008.88 1008.87 1009.02 1009.26 1009.24 1008.95 1008.65 1008.41 1008.13 1007.68 1007.22 1006.85 1006.55 1006.27 1006.32 1006.22 1006.80 1007.36
1006.31 1006.41 1006.46 1006.96 1007.37 1007.30 1007.08 1007.26 1007.36 1007.52 1007.98 1008.29 1008.43 1008.31 1008.35 1008.71 1009.01 1009.11 1009.10 1008.96 1008.81 1008.60 1008.59 1008.53 1008.56 1008.69 1008.65 1008.66 1008.79 1009.08 1009.04 1008.92 1008.77 1008.52 1008.24 1007.92 1007.49 1006.97 1006.55 1006.49 1006.22 1005.83 1006.21 1006.99
1006.83 1006.51 1007.14 1007.28 1007.47 1007.47 1007.61 1007.82 1007.98 1008.00 1008.22 1008.30 1008.40 1008.47 1008.54 1008.86 1008.91 1009.04 1009.11 1009.18 1009.18 1009.04 1009.01 1008.93 1008.89 1008.89 1008.82 1008.62 1008.59 1008.59 1008.61 1008.63 1008.67 1008.59 1008.31 1007.91 1007.53 1007.09 1006.79 1006.88 1007.12 1006.87 1007.04 1005.08
1007.14 1007.16 1007.52 1007.78 1007.97 1007.80 1007.98 1008.20 1008.29 1008.30 1008.31 1008.33 1008.44 1008.46 1008.43 1008.54 1008.82 1009.08 1009.20 1009.24 1009.05 1008.94 1008.84 1008.76 1008.72 1008.71 1008.65 1008.45 1008.40 1008.34 1008.23 1008.22 1008.32 1008.26 1008.13 1007.92 1007.57 1007.15 1007.04 1007.49 1007.75 1007.67 1006.93 1005.34
1007.24 1007.64 1007.78 1008.24 1008.25 1008.30 1008.45 1008.32 1008.36 1008.51 1008.57 1008.49 1008.41 1008.47 1008.47 1008.43 1008.65 1008.70 1008.87 1008.76 1008.69 1008.57 1008.41 1008.40 1008.40 1008.45 1008.42 1008.20 1008.07 1007.96 1007.79 1007.81 1007.82 1007.86 1007.76 1007.58 1007.34 1007.09 1006.87 1007.32 1007.59 1007.83 1007.97 1007.18
Wind_Speed
9 4 9 15 13 15 6 4 8 9 6 4 9 6 6 5 4 2 10 6 15 17 19 11 15 19 17 17 14 10 12 10 8 4 5 3 4 3 2 3 6 7 7 6
6 11 15 15 13 4 6 7 9 10 4 5 7 3 8 4 4 6 7 15 15 17 22 7 10 19 18 19 15 13 11 11 9 7 6 3 3 2 2 2 1 6 6 7
9 13 12 8 7 3 5 8 10 5 2 2 7 7 9 6 4 5 8 2 18 24 17 18 12 18 18 19 17 16 16 15 13 9 4 3 3 2 1 2 2 3 5 6
9 10 7 4 6 7 6 9 6 8 6 5 4 4 7 9 14 12 12 14 19 15 14 5 9 5 13 7 14 16 15 14 10 9 9 7 5 4 4 4 3 4 5 5
13 7 8 8 5 8 10 8 5 6 8 4 1 6 5 4 13 15 20 18 9 14 15 24 32 12 1 13 8 7 9 10 11 11 10 6 5 3 3 3 5 5 4 5
10 8 5 5 6 9 8 7 9 6 2 3 8 6 6 3 6 8 19 20 12 25 18 8 13 11 14 12 5 4 2 7 9 10 9 10 8 7 5 4 4 3 3 4
10 10 10 5 4 9 6 4 5 6 4 12 5 7 8 7 5 5 14 22 15 15 16 13 17 13 10 8 8 9 6 8 11 12 10 9 9 8 8 6 5 3 2 2
2 9 8 7 8 8 7 6 5 4 3 4 3 7 6 8 13 16 20 22 13 14 20 17 17 9 6 10 6 4 7 9 17 7 9 7 8 6 5 6 4 4 4 6
2 6 7 8 7 9 11 4 6 4 6 4 5 7 7 10 14 4 9 19 18 18 18 20 15 11 16 16 13 13 14 18 22 13 10 8 7 7 6 6 5 5 4 5
2 4 7 5 4 6 3 6 7 5 4 5 3 6 6 2 10 14 17 19 28 10 20 17 12 16 13 7 15 16 8 16 11 8 9 7 8 7 6 6 7 6 5 6
2 4 11 7 3 4 9 6 7 2 3 4 4 6 5 11 6 18 23 29 17 9 8 22 17 16 12 7 10 13 19 14 10 8 10 8 8 8 7 6 6 6 5 6
4 2 5 7 10 7 2 7 6 4 9 3 1 2 12 15 16 19 22 19 5 9 8 7 14 19 12 10 13 11 9 14 11 9 9 10 9 7 7 7 7 6 7 7
6 4 5 12 6 7 5 7 5 5 2 5 2 5 10 6 3 10 15 7 10 7 7 7 8 8 18 13 8 9 7 9 9 9 10 11 9 9 8 7 7 7 7 7
3 2 2 6 9 5 8 14 14 5 2 4 2 10 8 11 10 8 7 5 10 8 8 6 7 8 8 6 7 6 7 7 7 7 8 9 9 9 7 7 7 8 8 7
4 1 5 8 8 9 11 11 13 9 8 4 7 8 15 14 12 8 4 7 8 10 9 8 7 6 6 5 3 4 6 7 5 4 3 5 8 8 8 8 8 8 7 7
4 4 6 7 10 12 13 14 16 14 8 7 13 7 5 5 7 2 6 4 11 10 10 9 8 7 6 6 9 7 6 6 5 5 4 4 6 7 7 7 8 7 7 9
3 1 3 5 7 10 8 8 9 5 8 8 9 5 6 5 15 18 9 11 9 9 8 8 8 7 6 5 7 2 7 7 5 6 7 6 5 7 7 7 7 7 7 7
4 2 3 4 6 5 10 8 9 10 13 11 14 8 9 9 11 4 7 8 8 8 8 8 7 5 5 6 5 4 7 5 7 6 6 6 7 7 6 7 7 7 6 9
7 3 1 2 2 8 10 7 6 6 11 12 10 9 9 10 13 7 9 10 8 8 6 6 6 7 7 7 7 7 7 6 2 6 7 7 7 7 8 8 9 7 6 6
5 5 5 1 1 3 5 6 8 7 4 9 10 9 10 6 4 1 5 5 6 7 3 5 7 5 8 8 8 8 7 7 7 6 6 7 7 8 9 9 7 7 8 9
2 1 5 4 5 3 6 10 7 2 1 7 10 8 9 5 5 5 5 6 6 1 4 4 6 5 5 7 7 7 7 6 4 6 7 7 6 7 7 7 6 8 9 9
3 0 2 2 2 1 4 3 6 2 5 5 7 6 5 6 5 2 5 6 6 7 6 3 2 3 3 4 5 6 6 7 7 6 6 7 7 5 5 8 8 8 8 10
4 1 4 5 5 2 7 8 6 4 4 7 6 2 1 3 4 7 6 7 6 6 4 4 5 5 5 3 1 2 4 5 7 8 7 5 7 7 7 6 8 6 5 8
3 8 4 6 6 6 9 10 9 7 6 6 7 6 6 5 6 6 5 5 5 5 5 4 5 5 4 4 3 3 4 3 5 7 8 7 6 7 3 4 4 4 3 7
2 4 1 3 7 7 8 7 7 8 6 3 5 6 5 6 7 3 3 4 5 5 4 4 4 4 6 5 5 5 5 3 4 5 6 7 6 7 1 4 3 4 6 14
3 3 2 1 1 5 3 6 6 5 5 6 5 4 5 4 5 5 6 6 5 7 7 6 6 5 6 6 6 6 6 5 6 6 4 5 5 5 1 4 2 6 5 7
Wind_Direction
232 188 228 241 242 255 10 342 303 281 262 110 78 38 325 249 69 191 165 47 92 40 323 281 168 167 151 161 161 162 176 170 161 146 152 161 187 193 219 226 187 179 192 181
273 224 236 250 266 51 3 297 272 292 121 102 98 5 300 280 71 327 276 104 127 147 223 293 289 162 156 162 167 171 181 165 172 171 169 152 161 203 183 239 204 194 198 158
221 251 239 235 295 271 249 241 264 269 347 315 109 343 321 315 355 285 268 56 160 174 181 222 239 169 167 162 161 164 173 180 177 176 133 103 102 66 60 301 275 212 198 169
242 265 269 232 246 282 269 263 313 354 14 263 70 271 303 342 319 318 303 161 197 206 139 338 317 321 145 132 166 163 170 173 175 155 157 157 167 163 182 188 207 237 224 193
261 269 231 276 233 260 243 289 329 298 291 324 249 89 299 31 324 314 314 291 206 197 160 160 207 84 63 82 18 49 349 184 170 169 153 156 162 169 184 194 190 224 227 207
270 282 292 249 247 244 261 291 287 269 226 6 229 132 293 162 199 314 354 306 258 195 188 156 89 84 43 26 107 233 298 249 186 169 158 164 171 181 193 192 187 183 191 180
274 261 252 198 303 315 293 300 308 318 82 244 206 43 232 285 359 23 355 322 324 149 137 144 128 122 93 253 216 212 165 294 206 174 168 169 176 188 198 180 215 140 199 157
209 332 265 176 178 224 275 211 173 298 70 207 177 185 268 289 24 47 327 296 321 79 151 144 147 184 143 198 197 170 17 310 278 161 179 171 165 192 199 167 195 197 199 190
127 290 315 167 190 171 270 317 255 342 295 111 100 357 302 334 348 40 259 282 324 111 143 158 156 162 190 179 189 177 183 239 232 181 170 181 169 181 184 189 188 204 199 170
296 343 290 299 144 273 269 269 357 0 4 1 156 158 213 290 30 17 348 306 304 103 147 161 173 186 196 128 190 203 191 244 199 171 161 175 184 182 184 186 205 201 222 204
329 33 292 328 60 358 332 16 333 136 149 236 153 272 255 100 107 46 4 287 266 122 116 162 183 196 206 154 176 199 209 207 185 185 170 172 176 189 189 186 201 210 213 156
8 252 316 291 240 230 156 145 246 130 287 288 154 20 150 168 159 151 207 245 287 109 134 120 150 193 199 203 197 168 167 177 183 185 173 182 184 182 183 188 198 191 199 167
335 347 4 341 16 354 326 298 275 244 353 302 38 195 201 221 220 181 209 297 306 110 110 97 83 117 173 193 177 160 172 171 186 189 182 177 182 180 187 195 202 196 188 188
76 0 186 221 252 304 342 330 325 330 7 280 198 131 185 205 208 208 247 303 308 82 75 61 96 88 146 174 177 172 165 171 207 194 181 173 184 186 183 201 189 194 182 191
111 271 297 301 326 322 299 285 286 299 288 303 251 167 165 195 208 200 245 339 46 33 47 42 67 122 144 168 189 164 174 175 166 156 161 189 178 182 188 191 195 189 191 193
4 311 14 334 328 326 324 316 307 289 291 16 84 50 224 84 44 57 333 70 67 48 29 16 22 67 52 178 184 190 192 192 170 180 198 222 195 188 191 182 191 194 184 193
312 326 53 283 304 330 319 287 280 51 49 81 66 135 106 62 38 320 56 50 50 55 39 16 5 16 27 43 36 10 219 188 192 191 197 204 189 199 189 185 186 198 194 185
254 215 155 252 343 324 247 15 19 61 54 44 111 140 144 144 172 178 65 79 62 58 35 7 360 334 356 4 23 10 351 192 177 194 205 205 202 212 202 189 201 194 177 191
215 128 30 110 247 280 308 25 35 69 40 35 57 71 122 131 87 40 32 27 55 63 50 8 357 353 24 31 21 31 6 13 212 212 211 222 212 212 205 198 195 196 174 184
103 95 116 285 247 271 6 42 20 360 53 16 47 61 52 69 71 303 14 6 3 11 37 6 353 14 24 5 14 23 9 46 36 16 331 261 223 221 228 213 206 188 185 198
140 167 194 248 233 230 340 352 332 353 177 47 60 40 42 66 163 186 189 240 216 133 336 7 7 11 5 10 23 19 11 16 351 346 335 317 311 244 232 236 211 201 196 184
117 43 259 330 2 310 13 43 73 283 30 65 80 57 35 13 17 152 222 225 201 207 219 219 255 281 316 6 35 2 358 338 336 331 331 326 314 309 287 239 243 219 199 198
32 294 172 131 182 68 85 122 137 115 63 25 33 343 321 17 10 339 324 329 311 300 273 251 225 239 249 250 104 335 292 340 330 326 306 306 304 295 283 281 276 243 253 238
73 25 55 40 14 29 55 55 50 57 66 35 353 345 14 3 336 307 294 321 1 352 338 329 334 309 287 271 254 235 283 298 313 311 310 296 297 306 336 19 25 6 21 276
227 41 12 290 39 18 59 47 29 7 1 1 342 323 341 316 305 353 333 312 292 280 278 285 284 280 276 272 272 265 256 270 292 285 292 303 290 282 163 71 24 95 127 130
41 3 64 157 78 141 16 25 12 347 343 332 300 348 345 335 309 298 296 275 264 268 264 268 273 286 282 278 263 255 250 245 256 267 269 273 294 290 222 140 135 61 37 309